GW0058 Weather Reports


Display with metric or nautical units.
time (UTC)temp
F
wind
direction
speed
MPH
gust
MPH
rain 1hr
in
rain 24hr
in
rain mn
in
humidity
%
barometer
mb
20260904051048 80 151 6.0 13.0 0.00 0.00 0.00 76 1014.4
20260904050546 80 142 6.0 13.0 0.00 0.00 0.00 75 1014.4
20260904050054 80 156 5.0 13.0 0.00 0.00 0.00 75 1014.4
20260904045547 81 170 4.0 12.0 0.00 0.00 0.00 75 1014.4
20260904045047 81 139 4.0 12.0 0.00 0.00 0.00 74 1014.4
20260904044559 81 138 4.0 15.0 0.00 0.00 0.00 74 1014.3
20260904044046 81 144 7.0 15.0 0.00 0.00 0.00 74 1014.4
20260904043549 81 202 6.0 13.0 0.00 0.00 0.00 74 1014.3
20260904043103 81 150 4.0 10.0 0.00 0.00 0.00 73 1014.3
20260904042550 81 161 3.0 10.0 0.00 0.00 0.00 73 1014.3
20260904042047 81 153 4.0 10.0 0.00 0.00 0.00 73 1014.4
20260904041559 81 156 4.0 9.0 0.00 0.00 0.00 73 1014.4
20260904041046 81 131 2.0 8.0 0.00 0.00 0.00 73 1014.4
20260904040546 81 150 3.0 8.0 0.00 0.00 0.00 73 1014.4
20260904040055 81 124 2.0 7.0 0.00 0.00 0.00 72 1014.4
20260904035547 81 167 3.0 7.0 0.00 0.00 0.00 72 1014.3
20260904035046 82 140 3.0 7.0 0.00 0.00 0.00 72 1014.2
20260904034601 82 126 3.0 7.0 0.00 0.00 0.00 72 1014.1
20260904034051 82 130 2.0 7.0 0.00 0.00 0.00 71 1014.1
20260904033550 82 108 2.0 8.0 0.00 0.00 0.00 71 1014.1
20260904033059 82 132 3.0 9.0 0.00 0.00 0.00 71 1014.0
20260904032549 82 163 2.0 9.0 0.00 0.00 0.00 71 1014.0
20260904032048 82 129 3.0 9.0 0.00 0.00 0.00 71 1013.9
20260904031607 82 135 4.0 9.0 0.00 0.00 0.00 71 1013.9
20260904031142 83 45 3.0 10.0 0.00 0.00 0.00 70 1013.8
20260904030547 83 163 4.0 10.0 0.00 0.00 0.00 70 1013.8
20260904030117 83 142 3.0 10.0 0.00 0.00 0.00 70 1013.8
20260904025547 83 135 2.0 8.0 0.00 0.00 0.00 70 1013.9
20260904025046 83 115 2.0 9.0 0.00 0.00 0.00 70 1013.8
20260904024603 83 218 3.0 12.0 0.00 0.00 0.00 69 1013.7
20260904024046 83 143 2.0 12.0 0.00 0.00 0.00 69 1013.6
20260904023549 83 144 3.0 13.0 0.00 0.00 0.00 69 1013.5
20260904023105 83 86 2.0 13.0 0.00 0.00 0.00 69 1013.5
20260904022548 83 103 4.0 8.0 0.00 0.00 0.00 69 1013.4
20260904022047 83 148 2.0 10.0 0.00 0.00 0.00 69 1013.3
20260904021558 84 161 3.0 10.0 0.00 0.00 0.00 68 1013.2
20260904021048 84 153 2.0 9.0 0.00 0.00 0.00 68 1013.1
20260904020548 84 181 2.0 9.0 0.00 0.00 0.00 68 1013.0
20260904020105 84 111 1.0 7.0 0.00 0.00 0.00 68 1013.0
20260904015548 84 174 2.0 7.0 0.00 0.00 0.00 68 1013.0
20260904015046 84 129 1.0 9.0 0.00 0.00 0.00 67 1013.0
20260904014622 84 157 3.0 9.0 0.00 0.00 0.00 67 1013.0
20260904014047 84 0 2.0 9.0 0.00 0.00 0.00 67 1013.0
20260904013548 84 159 2.0 9.0 0.00 0.00 0.00 67 1012.9
20260904013121 84 136 1.0 8.0 0.00 0.00 0.00 66 1012.9
20260904012550 85 98 1.0 8.0 0.00 0.00 0.00 66 1012.9
20260904012050 85 169 2.0 9.0 0.00 0.00 0.00 66 1012.8
20260904011556 85 165 3.0 9.0 0.00 0.00 0.00 65 1012.8
20260904011046 85 49 2.0 9.0 0.00 0.00 0.00 65 1012.5
20260904010549 85 32 2.0 9.0 0.00 0.00 0.00 64 1012.6
20260904010110 85 82 3.0 10.0 0.00 0.00 0.00 64 1012.5
20260904005547 86 130 2.0 10.0 0.00 0.00 0.00 64 1012.5
20260904005048 86 88 2.0 10.0 0.00 0.00 0.00 63 1012.6
20260904004558 86 86 2.0 11.0 0.00 0.00 0.00 63 1012.7
20260904004050 87 152 4.0 11.0 0.00 0.00 0.00 62 1012.5
20260904003546 87 141 3.0 9.0 0.00 0.00 0.00 61 1012.5
20260904003132 87 163 2.0 11.0 0.00 0.00 0.00 61 1012.7
20260904002546 87 77 3.0 13.0 0.00 0.00 0.00 60 1012.6
20260904002047 87 191 3.0 13.0 0.00 0.00 0.00 59 1012.4
20260904001558 88 135 2.0 11.0 0.00 0.00 0.00 59 1012.5
20260904001046 88 120 5.0 11.0 0.00 0.00 0.00 59 1012.4
20260904000546 88 161 3.0 11.0 0.00 0.00 0.00 58 1012.5
20260904000051 88 73 2.0 10.0 0.00 0.00 0.00 58 1012.4
20260903235551 89 171 4.0 11.0 0.00 0.00 0.00 57 1012.3
20260903235049 89 57 4.0 11.0 0.00 0.00 0.00 57 1012.3
20260903234558 89 116 4.0 14.0 0.00 0.00 0.00 56 1012.1
20260903234050 89 200 4.0 17.0 0.00 0.00 0.00 55 1012.1
20260903233550 90 157 5.0 18.0 0.00 0.00 0.00 54 1012.1
20260903233100 91 190 5.0 18.0 0.00 0.00 0.00 51 1012.1
20260903232549 92 91 5.0 12.0 0.00 0.00 0.00 49 1011.9
20260903232049 93 161 4.0 11.0 0.00 0.00 0.00 49 1011.8
20260903231601 93 124 4.0 11.0 0.00 0.00 0.00 49 1011.7
20260903231047 93 100 6.0 10.0 0.00 0.00 0.00 48 1011.7
20260903230550 94 130 6.0 10.0 0.00 0.00 0.00 47 1011.7
20260903230106 94 120 3.0 8.0 0.00 0.00 0.00 46 1011.7
20260903225548 93 113 3.0 9.0 0.00 0.00 0.00 48 1011.6
20260903225045 93 146 4.0 9.0 0.00 0.00 0.00 47 1011.7
20260903224603 93 169 4.0 9.0 0.00 0.00 0.00 48 1011.7
20260903224050 93 61 4.0 11.0 0.00 0.00 0.00 48 1011.7
20260903223550 93 161 3.0 11.0 0.00 0.00 0.00 48 1011.7
20260903223108 93 84 3.0 12.0 0.00 0.00 0.00 48 1011.7
20260903222549 93 121 3.0 12.0 0.00 0.00 0.00 48 1011.6
20260903222050 94 167 6.0 14.0 0.00 0.00 0.00 46 1011.6
20260903221603 96 40 3.0 14.0 0.00 0.00 0.00 45 1011.6
20260903221046 96 144 5.0 14.0 0.00 0.00 0.00 44 1011.5
20260903220549 97 103 4.0 15.0 0.00 0.00 0.00 44 1011.5
20260903220104 97 188 8.0 15.0 0.00 0.00 0.00 45 1011.6
20260903215550 97 125 7.0 12.0 0.00 0.00 0.00 44 1011.5
20260903215047 98 153 2.0 10.0 0.00 0.00 0.00 39 1011.5
20260903214559 98 192 3.0 10.0 0.00 0.00 0.00 39 1011.5
20260903214049 98 182 4.0 10.0 0.00 0.00 0.00 40 1011.4
20260903213552 97 135 2.0 8.0 0.00 0.00 0.00 41 1011.6
20260903213051 97 135 3.0 8.0 0.00 0.00 0.00 41 1011.6
20260903212546 97 194 4.0 8.0 0.00 0.00 0.00 41 1011.6
20260903212046 97 178 2.0 12.0 0.00 0.00 0.00 42 1011.7
20260903211608 96 167 2.0 12.0 0.00 0.00 0.00 44 1011.7
20260903211050 96 134 5.0 12.0 0.00 0.00 0.00 44 1011.8
20260903210547 95 168 4.0 10.0 0.00 0.00 0.00 44 1012.0
20260903210057 96 159 3.0 11.0 0.00 0.00 0.00 45 1012.0
20260903205549 96 142 4.0 11.0 0.00 0.00 0.00 45 1011.9
20260903205049 96 115 3.0 8.0 0.00 0.00 0.00 45 1012.0
20260903204555 95 180 4.0 10.0 0.00 0.00 0.00 46 1012.1
20260903204050 95 128 4.0 10.0 0.00 0.00 0.00 45 1012.1
20260903203549 95 73 3.0 9.0 0.00 0.00 0.00 45 1012.2
20260903203103 96 130 3.0 12.0 0.00 0.00 0.00 44 1012.4
20260903202547 96 129 4.0 12.0 0.00 0.00 0.00 43 1012.4
20260903202047 97 103 3.0 12.0 0.00 0.00 0.00 42 1012.5
20260903201605 98 215 6.0 12.0 0.00 0.00 0.00 40 1012.5
20260903201046 99 167 3.0 7.0 0.00 0.00 0.00 40 1012.5
20260903200547 98 134 3.0 9.0 0.00 0.00 0.00 42 1012.6
20260903200101 99 0 3.0 15.0 0.00 0.00 0.00 41 1012.6
20260903195549 99 107 4.0 15.0 0.00 0.00 0.00 41 1012.6
20260903195049 98 165 4.0 15.0 0.00 0.00 0.00 42 1012.7
20260903194557 97 227 2.0 9.0 0.00 0.00 0.00 41 1012.6
20260903194046 99 292 4.0 9.0 0.00 0.00 0.00 42 1012.8
20260903193546 98 238 4.0 10.0 0.00 0.00 0.00 43 1012.8
20260903193108 98 159 5.0 10.0 0.00 0.00 0.00 44 1012.8
20260903192549 97 165 3.0 10.0 0.00 0.00 0.00 44 1012.9
20260903192047 97 167 3.0 14.0 0.00 0.00 0.00 42 1013.0
20260903191602 97 126 4.0 14.0 0.00 0.00 0.00 43 1013.2
20260903191048 96 155 2.0 8.0 0.00 0.00 0.00 44 1013.1
20260903190546 97 150 3.0 8.0 0.00 0.00 0.00 45 1013.3
20260903190059 97 123 5.0 8.0 0.00 0.00 0.00 43 1013.3
20260903185546 96 217 3.0 8.0 0.00 0.00 0.00 46 1013.4
20260903185046 94 166 4.0 10.0 0.00 0.00 0.00 47 1013.5
20260903184604 95 196 4.0 10.0 0.00 0.00 0.00 47 1013.6
20260903184048 94 166 4.0 10.0 0.00 0.00 0.00 47 1013.7
20260903183546 94 197 3.0 13.0 0.00 0.00 0.00 48 1013.8
20260903183106 94 200 4.0 13.0 0.00 0.00 0.00 48 1013.9
20260903182547 94 101 4.0 11.0 0.00 0.00 0.00 47 1013.9
20260903182046 94 196 6.0 11.0 0.00 0.00 0.00 46 1014.0
20260903181554 95 188 4.0 11.0 0.00 0.00 0.00 47 1014.0
20260903181050 94 202 3.0 15.0 0.00 0.00 0.00 49 1014.1
20260903180547 94 221 5.0 15.0 0.00 0.00 0.00 48 1014.1
20260903180106 95 120 4.0 10.0 0.00 0.00 0.00 48 1014.2
20260903175546 95 234 6.0 14.0 0.00 0.00 0.00 48 1014.3
20260903175046 94 242 5.0 14.0 0.00 0.00 0.00 48 1014.4
20260903174608 94 215 4.0 10.0 0.00 0.00 0.00 49 1014.4
20260903174046 93 269 4.0 10.0 0.00 0.00 0.00 51 1014.5
20260903173547 93 244 4.0 9.0 0.00 0.00 0.00 51 1014.5
20260903173107 92 221 4.0 9.0 0.00 0.00 0.00 54 1014.6
20260903172547 92 235 3.0 11.0 0.00 0.00 0.00 52 1014.6
20260903172047 92 173 5.0 13.0 0.00 0.00 0.00 54 1014.7
20260903171606 92 153 4.0 13.0 0.00 0.00 0.00 52 1014.8
20260903171046 93 257 6.0 15.0 0.00 0.00 0.00 53 1014.9
20260903170548 92 157 7.0 15.0 0.00 0.00 0.00 54 1014.8
20260903170107 91 167 4.0 11.0 0.00 0.00 0.00 54 1014.9
20260903165547 91 237 4.0 11.0 0.00 0.00 0.00 55 1014.9
20260903165046 91 200 5.0 12.0 0.00 0.00 0.00 55 1014.9
20260903164608 91 153 5.0 12.0 0.00 0.00 0.00 57 1014.7
20260903164047 91 176 5.0 12.0 0.00 0.00 0.00 57 1014.9
20260903163546 91 136 5.0 10.0 0.00 0.00 0.00 57 1014.9
20260903163101 90 163 5.0 10.0 0.00 0.00 0.00 58 1015.1
20260903162551 90 191 5.0 10.0 0.00 0.00 0.00 59 1015.0
20260903162048 90 196 4.0 11.0 0.00 0.00 0.00 58 1015.0
20260903161601 89 170 5.0 12.0 0.00 0.00 0.00 60 1015.0
20260903161046 89 186 5.0 12.0 0.00 0.00 0.00 59 1015.0
20260903160546 89 201 5.0 12.0 0.00 0.00 0.00 60 1014.9
20260903160110 88 159 5.0 13.0 0.00 0.00 0.00 62 1015.0
20260903155546 88 163 5.0 13.0 0.00 0.00 0.00 62 1015.0
20260903155051 88 117 5.0 11.0 0.00 0.00 0.00 62 1015.0
20260903154601 87 166 5.0 11.0 0.00 0.00 0.00 65 1015.0
20260903154047 86 259 5.0 11.0 0.00 0.00 0.00 67 1015.1
20260903153547 85 180 5.0 11.0 0.00 0.00 0.00 67 1015.1
20260903153109 85 140 5.0 12.0 0.00 0.00 0.00 67 1015.1
20260903152547 86 182 6.0 12.0 0.00 0.00 0.00 68 1015.1
20260903152049 86 153 4.0 10.0 0.00 0.00 0.00 69 1015.0
20260903151556 85 224 5.0 11.0 0.00 0.00 0.00 69 1015.2
20260903151047 85 234 5.0 12.0 0.00 0.00 0.00 68 1015.2
20260903150547 86 173 4.0 12.0 0.00 0.00 0.00 69 1015.1
20260903150053 85 236 4.0 10.0 0.00 0.00 0.00 70 1015.2
20260903145550 85 221 5.0 12.0 0.00 0.00 0.00 70 1015.1
20260903145047 85 184 6.0 12.0 0.00 0.00 0.00 71 1015.1
20260903144600 84 172 5.0 11.0 0.00 0.00 0.00 73 1015.1
20260903144049 84 227 5.0 11.0 0.00 0.00 0.00 74 1015.1
20260903143551 83 213 5.0 11.0 0.00 0.00 0.00 74 1015.1
20260903143108 83 219 6.0 11.0 0.00 0.00 0.00 74 1015.2
20260903142549 83 178 3.0 10.0 0.00 0.00 0.00 76 1015.2
20260903142048 82 177 4.0 10.0 0.00 0.00 0.00 77 1015.1
20260903141614 82 181 4.0 10.0 0.00 0.00 0.00 78 1015.1
20260903141049 82 205 5.0 12.0 0.00 0.00 0.00 78 1015.1
20260903140550 81 137 4.0 12.0 0.00 0.00 0.00 80 1015.1
20260903135546 81 184 5.0 10.0 0.00 0.00 0.00 80 1015.2
20260903135046 81 248 4.0 9.0 0.00 0.00 0.00 81 1015.2
20260903134611 81 195 3.0 9.0 0.00 0.00 0.00 82 1015.3
20260903134047 80 208 4.0 9.0 0.00 0.00 0.00 82 1015.3
20260903133550 80 203 3.0 9.0 0.00 0.00 0.00 83 1015.3
20260903133110 80 167 3.0 9.0 0.00 0.00 0.00 84 1015.3
20260903132553 80 221 4.0 10.0 0.00 0.00 0.00 84 1015.3
20260903132046 79 183 5.0 10.0 0.00 0.00 0.00 84 1015.3
20260903131555 79 150 4.0 9.0 0.00 0.00 0.00 84 1015.3
20260903131049 79 231 3.0 7.0 0.00 0.00 0.00 84 1015.3
20260903130548 79 210 3.0 7.0 0.00 0.00 0.00 84 1015.3
20260903130129 79 157 2.0 8.0 0.00 0.00 0.00 85 1015.2
20260903125547 79 173 3.0 8.0 0.00 0.00 0.00 85 1015.1
20260903125048 79 178 3.0 8.0 0.00 0.00 0.00 85 1015.1
20260903124606 79 163 3.0 7.0 0.00 0.00 0.00 85 1015.0
20260903124046 79 199 3.0 8.0 0.00 0.00 0.00 85 1014.9
20260903123546 79 191 3.0 8.0 0.00 0.00 0.00 85 1014.9
20260903123107 79 236 3.0 8.0 0.00 0.00 0.00 85 1014.9
20260903122548 79 200 3.0 7.0 0.00 0.00 0.00 85 1014.8
20260903122047 79 216 3.0 7.0 0.00 0.00 0.00 85 1014.7
20260903121602 79 219 4.0 7.0 0.00 0.00 0.00 85 1014.6
20260903121046 79 186 3.0 6.0 0.00 0.00 0.00 85 1014.7
20260903120546 79 167 3.0 6.0 0.00 0.00 0.00 85 1014.7
20260903120101 79 176 3.0 10.0 0.00 0.00 0.00 85 1014.7
20260903115549 79 167 3.0 10.0 0.00 0.00 0.00 85 1014.7
20260903115047 79 244 3.0 9.0 0.00 0.00 0.00 85 1014.6
20260903114600 79 197 3.0 9.0 0.00 0.00 0.00 85 1014.6
20260903114053 79 177 3.0 7.0 0.00 0.00 0.00 85 1014.6
20260903113549 79 171 3.0 7.0 0.00 0.00 0.00 85 1014.5
20260903113054 79 191 3.0 7.0 0.00 0.00 0.00 85 1014.6
20260903112546 79 178 2.0 7.0 0.00 0.00 0.00 85 1014.6
20260903112050 79 146 4.0 7.0 0.00 0.00 0.00 85 1014.6
20260903111554 79 207 4.0 6.0 0.00 0.00 0.00 85 1014.5
20260903111047 79 174 2.0 6.0 0.00 0.00 0.00 85 1014.6
20260903110550 79 192 3.0 9.0 0.00 0.00 0.00 85 1014.6
20260903110100 79 167 3.0 9.0 0.00 0.00 0.00 85 1014.5
20260903105548 79 180 3.0 9.0 0.00 0.00 0.00 85 1014.5
20260903105050 79 142 4.0 10.0 0.00 0.00 0.00 85 1014.4
20260903104559 79 133 4.0 10.0 0.00 0.00 0.00 85 1014.4
20260903104046 79 180 4.0 8.0 0.00 0.00 0.00 85 1014.4
20260903103549 79 173 4.0 8.0 0.00 0.00 0.00 85 1014.4
20260903103059 79 175 2.0 9.0 0.00 0.00 0.00 85 1014.4
20260903102546 79 169 2.0 9.0 0.00 0.00 0.00 85 1014.4
20260903102046 79 162 4.0 10.0 0.00 0.00 0.00 85 1014.3
20260903101602 79 185 3.0 10.0 0.00 0.00 0.00 85 1014.4
20260903101047 79 146 4.0 9.0 0.00 0.00 0.00 85 1014.4
20260903100547 79 145 3.0 8.0 0.00 0.00 0.00 85 1014.3
20260903100055 79 194 3.0 8.0 0.00 0.00 0.00 85 1014.3
20260903095549 79 157 3.0 8.0 0.00 0.00 0.00 86 1014.4
20260903095052 79 171 2.0 7.0 0.00 0.00 0.00 86 1014.4
20260903094607 79 171 2.0 7.0 0.00 0.00 0.00 86 1014.4
20260903094049 79 197 2.0 7.0 0.00 0.00 0.00 85 1014.4
20260903093550 79 150 3.0 6.0 0.00 0.00 0.00 85 1014.4
20260903093107 79 103 2.0 8.0 0.00 0.00 0.00 85 1014.4
20260903092550 79 178 3.0 9.0 0.00 0.00 0.00 85 1014.5
20260903092049 79 161 2.0 9.0 0.00 0.00 0.00 85 1014.5
20260903091605 79 202 2.0 9.0 0.00 0.00 0.00 85 1014.5
20260903091047 79 144 3.0 9.0 0.00 0.00 0.00 85 1014.5
20260903090552 79 205 3.0 8.0 0.00 0.00 0.00 85 1014.4
20260903090108 79 206 2.0 8.0 0.00 0.00 0.00 85 1014.5
20260903085546 79 169 3.0 8.0 0.00 0.00 0.00 85 1014.6
20260903085050 79 163 2.0 8.0 0.00 0.00 0.00 85 1014.6
20260903084600 79 190 2.0 6.0 0.00 0.00 0.00 85 1014.7
20260903084047 79 155 2.0 6.0 0.00 0.00 0.00 85 1014.6
20260903083551 79 170 2.0 6.0 0.00 0.00 0.00 85 1014.6
20260903083105 79 209 3.0 6.0 0.00 0.00 0.00 85 1014.5
20260903082550 79 136 3.0 6.0 0.00 0.00 0.00 84 1014.6
20260903082053 79 188 2.0 6.0 0.00 0.00 0.00 84 1014.7
20260903081623 79 182 2.0 6.0 0.00 0.00 0.00 84 1014.6
20260903081050 79 176 2.0 5.0 0.00 0.00 0.00 84 1014.7
20260903080552 79 180 2.0 6.0 0.00 0.00 0.00 84 1014.7
20260903080056 79 172 2.0 6.0 0.00 0.00 0.00 83 1014.7
20260903075549 79 184 2.0 9.0 0.00 0.00 0.00 83 1014.7
20260903075051 79 161 3.0 9.0 0.00 0.00 0.00 83 1014.7
20260903074610 79 136 1.0 6.0 0.00 0.00 0.00 82 1014.7
20260903074049 79 169 2.0 6.0 0.00 0.00 0.00 82 1014.7
20260903073550 79 134 2.0 6.0 0.00 0.00 0.00 81 1014.8
20260903073132 79 123 1.0 6.0 0.00 0.00 0.00 81 1014.7
20260903072548 79 172 2.0 6.0 0.00 0.00 0.00 81 1014.8
20260903072050 79 165 2.0 5.0 0.00 0.00 0.00 80 1014.9
20260903071617 79 152 2.0 6.0 0.00 0.00 0.00 80 1014.9
20260903071052 80 183 2.0 6.0 0.00 0.00 0.00 80 1014.8
20260903070549 80 163 2.0 6.0 0.00 0.00 0.00 79 1014.7
20260903070054 80 157 1.0 8.0 0.00 0.00 0.00 79 1014.7
20260903065550 80 136 3.0 8.0 0.00 0.00 0.00 79 1014.7
20260903065050 80 171 2.0 7.0 0.00 0.00 0.00 78 1014.8
20260903064557 80 142 2.0 10.0 0.00 0.00 0.00 78 1014.9
20260903064049 80 173 3.0 10.0 0.00 0.00 0.00 77 1014.9
20260903063549 80 182 3.0 9.0 0.00 0.00 0.00 77 1014.9
20260903063100 81 143 2.0 10.0 0.00 0.00 0.00 76 1014.9
20260903062549 81 194 4.0 10.0 0.00 0.00 0.00 76 1014.9
20260903062051 81 173 4.0 14.0 0.00 0.00 0.00 75 1014.8
20260903061555 81 163 5.0 14.0 0.00 0.00 0.00 75 1015.0
20260903061049 81 168 5.0 11.0 0.00 0.00 0.00 74 1015.0
20260903060549 81 167 3.0 11.0 0.00 0.00 0.00 73 1015.0
20260903060136 82 182 3.0 9.0 0.00 0.00 0.00 72 1015.1
20260903055549 82 178 4.0 10.0 0.00 0.00 0.00 71 1015.1
20260903055046 82 188 3.0 10.0 0.00 0.00 0.00 70 1015.0
20260903054600 82 194 4.0 11.0 0.00 0.00 0.00 69 1015.0
20260903054049 82 187 4.0 11.0 0.00 0.00 0.00 68 1015.0
20260903053551 83 165 4.0 10.0 0.00 0.00 0.00 68 1015.1
20260903053059 83 154 5.0 10.0 0.00 0.00 0.00 67 1015.0
20260903052551 83 153 4.0 9.0 0.00 0.00 0.00 67 1015.0
20260903052053 83 146 3.0 9.0 0.00 0.00 0.00 66 1015.0
20260903051606 83 132 3.0 9.0 0.00 0.00 0.00 65 1014.9